This is the latest recevied weather packets stored in our database for station/object K2NV. If no packets are shown the sender has not sent any weather packets the latest 10 day(s).
| Time | Temp. | Humidity | Pressure | Rain* | Wind** | Luminosity | Snow |
|---|---|---|---|---|---|---|---|
| 1777957457 | 15° C | 74% | 1001.1 hPa | 0 mm | - | - | - |
| 1777957157 | 15.56° C | 73% | 1001.1 hPa | 0 mm | - | - | - |
| 1777956856 | 15.56° C | 72% | 1001 hPa | 0 mm | - | - | - |
| 1777956557 | 15.56° C | 71% | 1001.1 hPa | 0 mm | - | - | - |
| 1777956258 | 16.11° C | 71% | 1001.1 hPa | 0 mm | - | - | - |
| 1777955957 | 16.11° C | 71% | 1001.1 hPa | 0 mm | - | - | - |
| 1777955656 | 16.67° C | 71% | 1001.2 hPa | 0 mm | - | - | - |
| 1777955358 | 16.67° C | 71% | 1001.2 hPa | 0 mm | - | - | - |
| 1777955058 | 16.67° C | 71% | 1001.1 hPa | 0 mm | - | - | - |
| 1777954757 | 16.67° C | 71% | 1001 hPa | 0 mm | - | - | - |
| 1777954457 | 16.67° C | 71% | 1000.9 hPa | 0 mm | - | - | - |
| 1777954157 | 17.22° C | 71% | 1000.9 hPa | 0 mm | - | - | - |
| 1777953858 | 17.22° C | 71% | 1000.8 hPa | 0 mm | - | - | - |
| 1777953557 | 16.67° C | 72% | 1000.7 hPa | 0 mm | - | - | - |
| 1777953258 | 16.11° C | 73% | 1000.8 hPa | 0 mm | - | - | - |
| 1777952957 | 15.56° C | 74% | 1000.6 hPa | 0 mm | - | - | - |
| 1777952656 | 15° C | 76% | 1000.6 hPa | 0 mm | - | - | - |
| 1777952357 | 14.44° C | 76% | 1000.5 hPa | 0 mm | - | - | - |
| 1777952058 | 14.44° C | 76% | 1000.4 hPa | 0 mm | - | - | - |
| 1777951757 | 14.44° C | 75% | 1000.5 hPa | 0 mm | - | - | - |
| 1777951458 | 14.44° C | 75% | 1000.5 hPa | 0 mm | - | - | - |
| 1777951157 | 14.44° C | 74% | 1000.6 hPa | 0 mm | - | - | - |
| 1777950858 | 14.44° C | 74% | 1000.6 hPa | 0 mm | - | - | - |
| 1777950557 | 14.44° C | 74% | 1000.7 hPa | 0 mm | - | - | - |
| 1777950257 | 14.44° C | 73% | 1000.7 hPa | 0 mm | - | - | - |
* Rain latest hour (hover to see other rain measurements)
** Current wind speed in m/s (hover to see current wind gust speed)